Location: ???????
(56.2167°N, 38.0500°E)
Time: 17:44:29
(UTC+00:00)

Cosmos 2333 Rocket - Pass Details

Date: 19 May 2025
Orbit: 840 x 862 km, 70.8° (Epoch: 21 June)

Event Time Altitude Azimuth Distance (km) Brightness Sun altitude
Rises 18:36:05 0° 318° (NW) 3,447 8.2 -6.0°
Reaches altitude 10° 18:38:55 10° 329° (NNW) 2,506 6.4 -6.2°
Maximum altitude 18:43:53 29° 29° (NNE) 1,531 3.8 -6.7°
Drops below altitude 10° 18:48:49 10° 89° (E) 2,486 4.3 -7.1°
Sets 18:51:36 0° 100° (E) 3,416 4.9 -7.3°
